Regional Weather Roundup
Issued by NWS

Home | Current Version | Previous Version | Text Only | Print | Product List | Glossary Off
Versions: 1 2 3 4 5 6 7 8 9 10 11 12 13 14 15 16 17 18 19 20 21 22 23 24 25 26 27 28 29 30 31 32 33 34 35 36 37 38 39 40 41 42 43 44 45 46 47 48 49 50

000
ASUS43 KIND 251959
RWRIN

WEATHER ROUNDUP FOR INDIANA
NATIONAL WEATHER SERVICE INDIANAPOLIS IN
300 PM EST TUE NOV 25 2014

NOTE: "FAIR" INDICATES FEW OR NO CLOUDS BELOW 12,000 FEET WITH NO
SIGNIFICANT WEATHER AND/OR OBSTRUCTIONS TO VISIBILITY.

* - STATION DOES NOT REPORT WEATHER SUCH AS PRECIPITATION OR FOG.

+ - STATION NOT QUALITY CONTROLLED BY THE NATIONAL WEATHER SERVICE.
    USE DATA WITH CAUTION...ESPECIALLY DEWPOINT AND RELATIVE
    HUMIDITY OBSERVATIONS.

INZ001>003-010>013-019-020-252100-
NORTHWEST INDIANA

CITY           SKY/WX    TMP DP  RH WIND       PRES   REMARKS
GARY /AIRPORT/ PTSUNNY   28  18  64 W14       30.14R WCI  17
VALPARAISO     NOT AVBL

$$

LMZ046-743>745-252100-
SOUTHERN LAKE MICHIGAN

STATION/POSITION TIME  TEMP WIND        PRES
                       AIR  DIR/SP/G
                 (UTC) (F)  (DEG/KT/KT) (MB)
MICHIGAN CITY    1900   27  230/ 14/ 17   N/A

$$

INZ004-005-014>016-021>024-252100-
NORTH CENTRAL INDIANA

CITY           SKY/WX    TMP DP  RH WIND       PRES   REMARKS
ELKHART        CLOUDY    27  19  74 SW10      30.13R WCI  17
GOSHEN         CLOUDY   N/A N/A N/A W13       30.12R
SOUTH BEND     CLOUDY    28  19  69 W10       30.12R WCI  19

$$

INZ006>009-017-018-025>027-252100-
NORTHEAST INDIANA

CITY           SKY/WX    TMP DP  RH WIND       PRES   REMARKS
ANGOLA *+      CLOUDY    27  19  74 W8        30.08R WCI  18
FORT WAYNE     CLOUDY    29  21  72 W14       30.12R WCI  18

$$

INZ028-029-035-036-043>045-051>053-252100-
WEST CENTRAL INDIANA

CITY           SKY/WX    TMP DP  RH WIND       PRES   REMARKS
GREENCASTLE +  CLOUDY    30  25  80 W7        30.14S WCI  23
LAFAYETTE      CLOUDY    26  20  77 W9        30.16S WCI  17
TERRE HAUTE    CLOUDY    31  24  75 W10       30.16F WCI  22

$$

INZ030>032-037>040-046>048-054>057-064-065-252100-
CENTRAL INDIANA

CITY           SKY/WX    TMP DP  RH WIND       PRES   REMARKS
ANDERSON       CLOUDY    30  25  80 W12G17    30.12S WCI  21
COLUMBUS       PTSUNNY   37  28  70 NW8       30.14S
INDIANAPOLIS   CLOUDY    30  23  75 W12       30.13S WCI  20
-EAGLE CREEK     N/A     29  23  78 W8        30.13S WCI  21
KOKOMO *+      CLOUDY    27  21  80 W14       30.13S WCI  15
MT COMFORT *+  CLOUDY    32  21  64 W9        30.13S WCI  24
SHELBYVILLE    CLOUDY    34  26  72 W9        30.13R WCI  27

$$

INZ033-034-041-042-049-050-058-059-252100-
EAST CENTRAL INDIANA

CITY           SKY/WX    TMP DP  RH WIND       PRES   REMARKS
MUNCIE         CLOUDY    30  24  78 W12       30.12R WCI  20

$$

INZ060-061-067>069-081>083-085>088-252100-
SOUTHWEST INDIANA

CITY           SKY/WX    TMP DP  RH WIND       PRES   REMARKS
EVANSVILLE     MOSUNNY   41  28  60 NW9       30.17S
HUNTINGBURG *+ SUNNY     39  27  60 SW5       30.15S

$$

INZ062-063-066-070>080-084-089>092-252100-
SOUTH CENTRAL AND SOUTHEAST INDIANA

CITY           SKY/WX    TMP DP  RH WIND       PRES   REMARKS
BLOOMINGTON    CLOUDY    33  26  75 W9        30.13F WCI  25

$$




USA.gov is the U.S. government's official web portal to all federal, state and local government web resources and services.